Volver al catálogo

OPS 4682 DEB

ActivoPO
NORAD 38393·DEBRIS·🇺🇸 United States

Lanzado Apr 3, 1965 desde Vandenberg Space Force Base

Loading…

Próximos Pases (próximas 24 horas)

TLE

ActualizadoSource: Space-Track

Época: Sep 11, 2026, 13:55 UTC

1 38393U 65027CW  26254.58013081  .00000505  00000-0  16855-2 0  9998
2 38393  90.2609  18.8247 0027819 148.2890 211.9914 12.98477977637030

Sigue OPS 4682 DEB en tiempo real con AllMySat

Download on the App Store